This demonstration page uses our WeatherBlox Daily Observations layout. Learn more.

Left ArrowRight Arrow

Hourly Observations for May 9, 2021

Temp ( °F °C ) Dew Point ( °F °C ) Humidity (%) Winds ( mph kmh ) Pressure ( in mb ) Visibility ( mi km ) Precip ( " mm )
12:49 am 00:49 Cloudy with Light Rain 45 7 41 5 87 87 N 17 28 29.81 1009 7 11.26538 0.1 2.54
12:54 am 00:54 Cloudy with Light Rain 45 7.2 41 5 86 86 NNW 16 26 29.81 1010 10 16.0934 0.1 2.54
1:04 am 01:04 Cloudy with Light Rain 45 7.2 41 5 86 86 NNE 20 31 29.84 1011 10 16.0934 0.001 0.001
1:20 am 01:20 Cloudy 45 7.2 41 5 86 86 NNE 20 31 29.82 1010 10 16.0934 0.001 0.001
1:54 am 01:54 Cloudy 45 7.2 41 5 86 86 NNE 16 26 29.81 1009 10 16.0934 0.001 0.001
2:32 am 02:32 Cloudy 45 7.2 41 5 86 86 NNE 21 33 29.84 1011 10 16.0934 N/A
2:46 am 02:46 Cloudy 45 7.2 41 5 86 86 NNE 16 26 29.86 1011 10 16.0934 N/A
2:54 am 02:54 Cloudy 45 7.2 41 5 86 86 NNE 17 28 29.83 1010 10 16.0934 N/A
3:09 am 03:09 Cloudy 44 6.7 40 4.4 85 85 N 17 28 29.88 1012 10 16.0934 N/A
3:54 am 03:54 Cloudy 43 6.1 39 3.9 86 86 N 20 31 29.87 1012 10 16.0934 N/A
4:54 am 04:54 Cloudy with Light Rain 42 5.6 39 3.9 89 89 N 15 24 29.91 1013 4 6.43736 0.01 0.254
5:54 am 05:54 Cloudy with Light Rain 42 5.6 39 3.9 89 89 N 16 26 29.93 1014 4 6.43736 0.01 0.254
6:54 am 06:54 Cloudy with Mist and Fog 43 6.1 40 4.4 89 89 NNE 18 30 29.95 1014 5 8.0467 0.01 0.254
7:21 am 07:21 Cloudy with Mist and Fog 43 6.1 40 4.4 89 89 NNE 20 31 30.01 1016 5 8.0467 N/A
7:54 am 07:54 Cloudy 43 6.1 40 4.4 89 89 NNE 18 30 30 1016 9 14.48406 N/A
8:54 am 08:54 Cloudy 44 6.7 39 3.9 83 83 NNE 20 31 30.04 1017 10 16.0934 N/A
9:54 am 09:54 Cloudy 45 7.2 40 4.4 83 83 NNE 13 20 30.07 1018 10 16.0934 N/A
10:13 am 10:13 Cloudy 45 7.2 40 4.4 83 83 NNE 12 19 30.09 1019 10 16.0934 N/A
10:54 am 10:54 Cloudy 48 8.9 40 4.4 74 74 NNE 13 20 30.08 1019 10 16.0934 N/A
11:07 am 11:07 Cloudy 48 8.9 40 4.4 74 74 NNE 10 17 30.11 1020 10 16.0934 N/A
11:54 am 11:54 Cloudy 51 10.6 39 3.9 64 64 NNE 16 26 30.1 1019 10 16.0934 N/A
12:18 pm 12:18 Cloudy 51 10.6 39 3.9 64 64 N 16 26 30.11 1020 10 16.0934 N/A
12:32 pm 12:32 Cloudy 52 11.1 38 3.3 59 59 NE 17 28 30.1 1019 10 16.0934 N/A
12:54 pm 12:54 Mostly Cloudy 52 11.1 37 2.8 57 57 NNE 13 20 30.1 1019 10 16.0934 N/A
1:54 pm 13:54 Cloudy 54 12.2 37 2.8 53 53 NE 12 19 30.11 1020 10 16.0934 N/A
2:54 pm 14:54 Mostly Cloudy 56 13.3 38 3.3 51 51 ENE 13 20 30.09 1019 10 16.0934 N/A
4:54 pm 16:54 Cloudy 55 12.8 37 2.8 51 51 NNE 9 15 30.09 1019 10 16.0934 N/A
5:54 pm 17:54 Cloudy 55 12.8 37 2.8 51 51 NE 8 13 30.09 1019 10 16.0934 N/A
6:54 pm 18:54 Mostly Sunny 54 12.2 37 2.8 53 53 N 8 13 30.1 1019 10 16.0934 N/A
7:54 pm 19:54 Sunny 52 11.1 37 2.8 57 57 N 6 9 30.1 1019 10 16.0934 N/A
8:54 pm 20:54 Clear 52 11.1 37 2.8 57 57 NW 3 6 30.13 1020 10 16.0934 N/A
9:54 pm 21:54 Clear 48 8.9 38 3.3 68 68 N N/A 30.15 1021 10 16.0934 N/A
10:54 pm 22:54 Clear 44 6.7 37 2.8 76 76 N N/A 30.17 1022 10 16.0934 N/A
11:54 pm 23:54 Mostly Cloudy 42 5.6 37 2.8 82 82 N 3 6 30.18 1022 10 16.0934 N/A

Powered by AerisWeather